Simultaneous Nadir Overpasses (SNOs) Predictions

Prediction of SNOs between AQUA and METOP-B Satellite Orbit:

Table of predicted SNOs for the next 14.0 days since TLE Epoch: 5/21/2016
Index Date (AQUA) Time (AQUA) Lat,Lon (AQUA) SZA (AQUA ) Date (METOP-B) Time (METOP-B) Lat,Lon (METOP-B) SZA (METOP-B ) Distance(km) Time Diff (sec)
1 05/21/2016 04:54:34 73.89, 100.52 53.60 05/21/2016 04:55:23 73.87, 100.49 53.58 1.54 49
2 05/23/2016 22:49:43 73.55,-167.57 52.72 05/23/2016 22:48:32 73.47,-168.70 52.68 36.65 71
3 05/23/2016 23:39:14 -73.84, -0.55 126.99 05/23/2016 23:39:07 -73.81, -0.58 127.01 2.94 7
4 05/24/2016 00:28:43 73.92, 166.90 53.10 05/24/2016 00:29:45 73.90, 166.97 53.07 2.91 62
5 05/26/2016 18:23:56 73.75,-101.55 52.44 05/26/2016 18:22:50 73.74,-101.65 52.44 3.46 66
6 05/26/2016 19:13:23 -73.83, 65.92 127.49 05/26/2016 19:13:30 -73.84, 65.89 127.48 1.18 7
7 05/26/2016 20:02:54 74.02,-126.86 52.71 05/26/2016 20:04:06 74.02,-126.32 52.69 16.34 72
8 05/29/2016 13:58:05 73.76, -35.10 52.00 05/29/2016 13:57:13 73.76, -35.20 52.02 2.98 52
9 05/29/2016 14:47:32 -73.84, 132.38 127.93 05/29/2016 14:47:53 -73.85, 132.35 127.91 2.22 21
10 05/29/2016 15:37:14 74.59, -61.75 52.88 05/29/2016 15:38:18 74.58, -58.48 52.77 96.63 64
11 06/01/2016 09:32:13 73.78, 31.32 51.63 06/01/2016 09:31:35 73.78, 31.25 51.64 2.09 38
12 06/01/2016 10:21:40 -73.85,-161.20 128.30 06/01/2016 10:22:15 -73.87,-161.20 128.29 1.72 35




NCC Satellite Simultaneous Nadir Overpasses (SNOs) Prediction Service
